Location: downtown San Diego
(32.7310°N, 117.1990°W)
Time: 17:31:36
(UTC-07:00)

Cosmos 1943 - Pass Details

Date: 19 May 2017
Orbit: 833 x 850 km, 71.0° (Epoch: 25 July)

Event Time Altitude Azimuth Distance (km) Brightness Sun altitude
Rises 20:56:45 0° 216° (SW) 3,379 6.4 -14.1°
Reaches altitude 10° 20:59:18 10° 223° (SW) 2,446 5.7 -14.5°
Maximum altitude 21:04:37 44° 294° (WNW) 1,150 4.4 -15.4°
Drops below altitude 10° 21:09:57 10° 6° (N) 2,449 6.0 -16.3°
Sets 21:12:31 0° 13° (NNE) 3,385 6.7 -16.8°
